Location: Taylor Dark Sky Site
(39.1017°N, 87.9564°W)
Time: 08:16:07
(UTC-05:00)

Amateur Radio Satellites - All Passes

Search period start: 01 November 2014 07:46
Search period end: 02 November 2014 06:46
Location: Taylor Dark Sky Site, 39.1017°N, 87.9564°W

Satellite Date Start Highest point End Downlink Frequencies (MHz)
Time Altitude Azimuth
STRAND 1 01 Nov 07:56:26 08:00:33 24° 265° (W) 08:04:42 ?
RS-15 01 Nov 08:03:27 08:13:06 35° 254° (WSW) 08:23:08 29.354 - 29.394 USB, Beacon 29.352 USB
MaSat-1 01 Nov 08:08:01 08:10:09 27° 250° (WSW) 08:12:13 437.345 MHz
JAS-2 01 Nov 08:18:33 08:23:41 19° 303° (WNW) 08:28:45 435.800 - 435.900 CW/SSB, 435.910 FM
HO-68 01 Nov 08:22:19 08:25:58 14° 90° (E) 08:29:36 435.675 MHz FM
ISS 01 Nov 08:50:16 08:52:30 17° 130° (SE) 08:54:46 145.800 FM
SO-67 01 Nov 08:54:44 08:56:56 16° 291° (WNW) 08:59:08 435.3500 MHz FM
Sapphire 01 Nov 09:42:37 09:44:10 11° 39° (NE) 09:45:43 437.095 MHz 1200 baud AX-25 AFSK
Oscar 11 01 Nov 09:48:04 09:51:24 22° 95° (E) 09:54:43 145.825 FM, Beacon 2401.500 USB
KITSAT 1 01 Nov 09:57:22 10:04:34 38° 108° (ESE) 10:11:48 435.175 FM
SO-50 01 Nov 09:59:06 10:02:09 18° 109° (ESE) 10:05:15 436.795 FM
PCSat 01 Nov 10:02:47 10:06:15 17° 45° (NE) 10:09:41 145.825 MHz
HO-68 01 Nov 10:07:17 10:14:31 90° 106° (ESE) 10:21:42 435.675 MHz FM
FUNcube-1 01 Nov 10:08:04 10:10:15 14° 92° (E) 10:12:25 145.950 - 145.970 MHz USB
ISS 01 Nov 10:25:43 10:28:56 47° 326° (NW) 10:32:10 145.800 FM
UKube-1 01 Nov 10:49:12 10:53:34 75° 285° (WNW) 10:57:54 145.840 MHz, 145.915 MHz
ZACube-1 01 Nov 11:00:06 11:04:15 58° 100° (E) 11:08:19 437.345 MHz
Sapphire 01 Nov 11:23:18 11:28:43 63° 59° (ENE) 11:34:04 437.095 MHz 1200 baud AX-25 AFSK
Oscar 11 01 Nov 11:23:49 11:27:35 30° 290° (WNW) 11:31:21 145.825 FM, Beacon 2401.500 USB
SO-50 01 Nov 11:37:59 11:42:18 46° 307° (NW) 11:46:46 436.795 FM
FUNcube-1 01 Nov 11:42:54 11:46:52 43° 287° (WNW) 11:50:46 145.950 - 145.970 MHz USB
PCSat 01 Nov 11:44:52 11:50:18 80° 244° (WSW) 11:55:42 145.825 MHz
KITSAT 1 01 Nov 11:51:59 11:59:44 49° 307° (NW) 12:07:33 435.175 FM
HO-68 01 Nov 11:56:50 12:01:15 18° 305° (NW) 12:05:40 435.675 MHz FM
Oscar 16 01 Nov 12:01:53 12:03:07 11° 59° (ENE) 12:04:22 437.025 USB, Beacon 2401.1428
ISS 01 Nov 12:04:37 12:06:16 13° 345° (NNW) 12:07:55 145.800 FM
JAS-1B 01 Nov 12:05:32 12:07:56 13° 57° (ENE) 12:10:20 435.800 - 435.900 CW/SSB
UOSAT-12 01 Nov 12:16:06 12:20:27 42° 115° (ESE) 12:24:54 437.025 FM, 437.400 FM
ZACube-1 01 Nov 12:38:47 12:40:06 11° 297° (WNW) 12:41:26 437.345 MHz
ITAMSAT 1 01 Nov 12:44:37 12:46:10 11° 59° (ENE) 12:47:44 435.822 SSB
Oscar 19 01 Nov 12:50:05 12:54:34 31° 68° (ENE) 12:59:02 437.125 CW, 437.150 USB
Sapphire 01 Nov 13:08:14 13:11:33 17° 256° (WSW) 13:14:52 437.095 MHz 1200 baud AX-25 AFSK
AO-27 01 Nov 13:29:04 13:33:35 31° 67° (ENE) 13:38:07 436.795 MHz FM
Oscar 16 01 Nov 13:36:31 13:41:40 89° 76° (ENE) 13:46:51 437.025 USB, Beacon 2401.1428
ISS 01 Nov 13:43:59 13:44:10 10° 6° (N) 13:44:21 145.800 FM
Gurwin Techsat 1B 01 Nov 13:50:56 13:55:15 26° 66° (ENE) 13:59:34 435.225 FM
JAS-1B 01 Nov 13:52:03 13:57:49 79° 256° (WSW) 14:03:34 435.800 - 435.900 CW/SSB
KITSAT 1 01 Nov 13:53:20 13:57:23 14° 332° (NNW) 14:01:27 435.175 FM
TMSAT-1 01 Nov 13:56:59 14:00:57 22° 65° (ENE) 14:04:56 436.925 FM
UOSAT-12 01 Nov 13:57:00 14:00:46 24° 313° (NW) 14:04:35 437.025 FM, 437.400 FM
AO-7 01 Nov 14:02:33 14:06:26 14° 48° (NE) 14:10:18 29.400 - 29.500 MHz
AO-Echo 01 Nov 14:02:41 14:07:40 80° 75° (ENE) 14:12:51 ?
Uribyol 2 01 Nov 14:11:23 14:16:36 80° 75° (ENE) 14:21:51 436.500 FM
ITAMSAT 1 01 Nov 14:19:38 14:24:51 89° 73° (ENE) 14:30:07 435.822 SSB
Saudisat 1A 01 Nov 14:23:14 14:27:37 60° 56° (NE) 14:31:59 436.775 MHz
Oscar 19 01 Nov 14:29:24 14:33:50 29° 264° (W) 14:38:18 437.125 CW, 437.150 USB
AO-27 01 Nov 15:08:25 15:13:00 31° 263° (W) 15:17:38 436.795 MHz FM
ISS 01 Nov 15:19:08 15:21:50 22° 26° (NNE) 15:24:32 145.800 FM
Gurwin Techsat 1B 01 Nov 15:30:05 15:34:59 38° 262° (W) 15:39:56 435.225 FM
TMSAT-1 01 Nov 15:35:27 15:40:31 46° 261° (W) 15:45:38 436.925 FM
AO-Echo 01 Nov 15:46:04 15:47:04 11° 272° (W) 15:48:04 ?
AO-7 01 Nov 15:49:30 15:57:38 66° 68° (ENE) 16:05:49 29.400 - 29.500 MHz
Uribyol 2 01 Nov 15:55:11 15:56:38 11° 271° (W) 15:58:06 436.500 FM
Uosat F 01 Nov 15:55:35 16:00:14 40° 70° (ENE) 16:04:56 435.120 FM
Saudisat 1A 01 Nov 16:04:38 16:06:39 13° 252° (WSW) 16:08:41 436.775 MHz
JAS-2 01 Nov 16:42:38 16:48:23 37° 65° (ENE) 16:54:49 435.800 - 435.900 CW/SSB, 435.910 FM
ISS 01 Nov 16:55:27 16:58:42 51° 223° (SW) 17:01:57 145.800 FM
Uosat F 01 Nov 17:35:15 17:39:08 22° 265° (W) 17:43:02 435.120 FM
AO-7 01 Nov 17:44:22 17:50:55 26° 265° (W) 17:57:32 29.400 - 29.500 MHz
KITSAT 1 01 Nov 17:51:40 17:57:03 19° 35° (NE) 18:02:24 435.175 FM
Hamsat 01 Nov 17:54:50 17:59:01 90° 250° (WSW) 18:03:13 145.90 MHz
OPAL 01 Nov 18:08:25 18:13:20 61° 103° (ESE) 18:18:13 ?
JAS-2 01 Nov 18:27:34 18:33:20 38° 266° (W) 18:39:50 435.800 - 435.900 CW/SSB, 435.910 FM
STRAND 1 01 Nov 18:29:56 18:32:28 14° 91° (E) 18:34:59 ?
SO-50 01 Nov 18:30:53 18:34:04 17° 43° (NE) 18:37:15 436.795 FM
HO-68 01 Nov 18:53:07 18:54:53 11° 50° (NE) 18:56:40 435.675 MHz FM
Oscar 10/S400 01 Nov 19:08:10 19:36:10 60° 192° (SSW) 03:55:18 145.825 - 145.975 CW/USB, Beacon 145.810 USB
AO-40 01 Nov 19:14:16 21:55:57 37° 200° (SSW) 02:04:37 Beacon 2401.320
SO-67 01 Nov 19:24:45 19:28:07 59° 260° (W) 19:31:32 435.3500 MHz FM
KITSAT 1 01 Nov 19:45:59 19:54:03 69° 58° (ENE) 20:02:05 435.175 FM
OPAL 01 Nov 19:48:48 19:51:42 16° 300° (WNW) 19:54:35 ?
STRAND 1 01 Nov 20:06:58 20:12:05 66° 286° (WNW) 20:17:09 ?
SO-50 01 Nov 20:10:16 20:15:08 73° 241° (WSW) 20:20:00 436.795 FM
RS-15 01 Nov 20:12:49 20:23:02 46° 109° (ESE) 20:33:08 29.354 - 29.394 USB, Beacon 29.352 USB
HO-68 01 Nov 20:34:08 20:41:08 61° 69° (ENE) 20:48:11 435.675 MHz FM
Oscar 11 01 Nov 20:42:55 20:45:31 16° 66° (ENE) 20:48:07 145.825 FM, Beacon 2401.500 USB
UOSAT-12 01 Nov 20:46:52 20:50:59 29° 49° (NE) 20:55:03 437.025 FM, 437.400 FM
FUNcube-1 01 Nov 21:04:20 21:06:01 12° 64° (ENE) 21:07:41 145.950 - 145.970 MHz USB
MaSat-1 01 Nov 21:40:29 21:44:20 59° 113° (ESE) 21:47:49 437.345 MHz
KITSAT 1 01 Nov 21:42:33 21:48:43 25° 256° (WSW) 21:54:53 435.175 FM
UKube-1 01 Nov 21:43:10 21:47:31 81° 76° (ENE) 21:51:54 145.840 MHz, 145.915 MHz
ZACube-1 01 Nov 21:55:08 21:59:23 42° 73° (ENE) 22:03:35 437.345 MHz
Oscar 11 01 Nov 22:17:13 22:21:20 44° 261° (W) 22:25:28 145.825 FM, Beacon 2401.500 USB
HO-68 01 Nov 22:23:40 22:29:14 24° 266° (W) 22:34:51 435.675 MHz FM
RS-15 01 Nov 22:24:37 22:35:12 52° 311° (NW) 22:45:49 29.354 - 29.394 USB, Beacon 29.352 USB
UOSAT-12 01 Nov 22:26:56 22:31:07 33° 246° (WSW) 22:35:14 437.025 FM, 437.400 FM
FUNcube-1 01 Nov 22:37:21 22:41:51 66° 259° (W) 22:46:16 145.950 - 145.970 MHz USB
MaSat-1 01 Nov 23:19:34 23:19:53 10° 306° (NW) 23:20:11 437.345 MHz
ZACube-1 01 Nov 23:33:00 23:35:55 17° 267° (W) 23:38:49 437.345 MHz
RS-15 02 Nov 00:43:37 00:51:03 20° 342° (NNW) 00:58:34 29.354 - 29.394 USB, Beacon 29.352 USB
PCSat 02 Nov 00:44:48 00:47:50 15° 104° (ESE) 00:50:51 145.825 MHz
Oscar 19 02 Nov 01:05:00 01:06:29 11° 90° (E) 01:07:58 437.125 CW, 437.150 USB
JAS-1B 02 Nov 01:35:07 01:41:48 34° 98° (E) 01:49:30 435.800 - 435.900 CW/SSB
AO-27 02 Nov 01:45:34 01:47:00 11° 89° (E) 01:48:26 436.795 MHz FM
Oscar 16 02 Nov 01:49:43 01:54:21 34° 97° (E) 01:58:58 437.025 USB, Beacon 2401.1428
Sapphire 02 Nov 01:03:44 01:09:06 74° 116° (ESE) 01:14:32 437.095 MHz 1200 baud AX-25 AFSK
Gurwin Techsat 1B 02 Nov 01:11:22 01:11:41 10° 89° (E) 01:12:00 435.225 FM
AO-Echo 02 Nov 01:11:31 01:16:09 30° 95° (E) 01:20:41 ?
PCSat 02 Nov 01:25:14 01:30:36 68° 300° (WNW) 01:36:02 145.825 MHz
Uribyol 2 02 Nov 01:25:46 01:30:21 31° 97° (E) 01:34:54 436.500 FM
ITAMSAT 1 02 Nov 01:34:03 01:38:49 35° 97° (E) 01:43:31 435.822 SSB
Oscar 19 02 Nov 01:41:14 01:46:22 77° 285° (WNW) 01:51:28 437.125 CW, 437.150 USB
RS-15 02 Nov 02:01:43 02:09:23 20° 19° (NNE) 02:17:11 29.354 - 29.394 USB, Beacon 29.352 USB
PANSAT 02 Nov 02:20:36 02:22:11 12° 167° (SSE) 02:23:46 not established
AO-27 02 Nov 02:21:50 02:27:05 80° 285° (WNW) 02:32:16 436.795 MHz FM
JAS-1B 02 Nov 02:25:27 02:32:23 50° 290° (WNW) 02:40:36 435.800 - 435.900 CW/SSB
Oscar 16 02 Nov 02:29:17 02:33:33 27° 293° (WNW) 02:37:48 437.025 USB, Beacon 2401.1428
Gurwin Techsat 1B 02 Nov 02:46:56 02:52:17 87° 284° (WNW) 02:57:36 435.225 FM
OPAL 02 Nov 02:47:12 02:49:08 12° 58° (ENE) 02:51:03 ?
Sapphire 02 Nov 02:49:31 02:53:07 18° 314° (NW) 02:56:45 437.095 MHz 1200 baud AX-25 AFSK
AO-Echo 02 Nov 02:50:08 02:54:51 33° 292° (WNW) 02:59:29 ?
TMSAT-1 02 Nov 02:52:09 02:57:29 78° 103° (ESE) 03:02:46 436.925 FM
AO-7 02 Nov 02:53:34 02:59:40 22° 93° (E) 03:05:44 29.400 - 29.500 MHz
Uribyol 2 02 Nov 03:05:15 03:09:44 30° 293° (WNW) 03:14:12 436.500 FM
Uosat F 02 Nov 03:06:12 03:08:29 13° 91° (E) 03:10:46 435.120 FM
PCSat 02 Nov 03:13:08 03:15:04 12° 320° (NW) 03:17:01 145.825 MHz
ITAMSAT 1 02 Nov 03:13:47 03:18:08 27° 293° (WNW) 03:22:28 435.822 SSB
Saudisat 1A 02 Nov 03:29:35 03:32:46 20° 111° (ESE) 03:35:59 436.775 MHz
PANSAT 02 Nov 03:59:08 04:01:39 17° 180° (S) 04:04:10 not established
RS-15 02 Nov 04:14:18 04:25:11 53° 50° (NE) 04:36:27 29.354 - 29.394 USB, Beacon 29.352 USB
OPAL 02 Nov 04:22:12 04:27:19 84° 254° (WSW) 04:32:23 ?
Gurwin Techsat 1B 02 Nov 04:29:55 04:31:25 11° 301° (WNW) 04:32:55 435.225 FM
TMSAT-1 02 Nov 04:34:12 04:36:42 14° 299° (WNW) 04:39:11 436.925 FM
JAS-2 02 Nov 04:37:22 04:44:41 41° 95° (E) 04:51:39 435.800 - 435.900 CW/SSB, 435.910 FM
Hamsat 02 Nov 04:42:31 04:45:20 17° 93° (E) 04:48:08 145.90 MHz
Uosat F 02 Nov 04:42:42 04:47:43 67° 286° (WNW) 04:52:41 435.120 FM
STRAND 1 02 Nov 04:44:30 04:48:04 19° 64° (ENE) 04:51:39 ?
AO-7 02 Nov 04:44:48 04:53:07 75° 291° (WNW) 05:01:26 29.400 - 29.500 MHz
Saudisat 1A 02 Nov 05:07:56 05:12:03 40° 307° (NW) 05:16:13 436.775 MHz
PANSAT 02 Nov 05:39:28 05:41:07 12° 193° (SSW) 05:42:46 not established
Hamsat 02 Nov 06:17:29 06:21:23 37° 288° (WNW) 06:25:17 145.90 MHz
STRAND 1 02 Nov 06:21:52 06:26:50 51° 260° (W) 06:31:52 ?
JAS-2 02 Nov 06:22:19 06:29:36 43° 293° (WNW) 06:36:36 435.800 - 435.900 CW/SSB, 435.910 FM
MaSat-1 02 Nov 06:25:45 06:28:11 79° 65° (ENE) 06:30:30 437.345 MHz
